Galliano, LA

4:14 AM CST on November 19, 2017 (GMT -0600)
Galliano

Weather History for KGAO - January, 2013

Change the Weather History Date:

Friday, January 25, 2013

  Actual Average (KHUM) Record (KHUM)
Temperature  
Mean Temperature 57 °F -  
Max Temperature 73 °F 63 °F 81 °F (1943)
Min Temperature 41 °F 44 °F 21 °F (1963)
Degree Days  
Heating Degree Days 8    
Growing Degree Days 7 (Base 50)    
Moisture  
Dew Point 54 °F    
Average Humidity 86    
Maximum Humidity 100    
Minimum Humidity 60    
Precipitation  
Precipitation 0.00 in - - ()
Sea Level Pressure  
Sea Level Pressure 30.22 in    
Wind  
Wind Speed 5 mph (SSE)    
Max Wind Speed 16 mph    
Max Gust Speed 22 mph    
Visibility 7 miles    
Events Fog    
Averages and records for this station are not official NWS values.
T = Trace of Precipitation, MM = Missing Value Source: NWS Daily Summary

Daily Weather History Graph

Daily Weather History Graph

Search for Another Location

Airport or City:

Trip Planner

Search our weather history database for the weather conditions in past years. The results will help you decide how hot, cold, wet, or windy it might be!

Date:

Astronomy

Jan. 25, 2013 Rise Set
Actual Time 6:53 AM CST 5:33 PM CST
Civil Twilight 6:28 AM CST 5:58 PM CST
Nautical Twilight 5:59 AM CST 6:27 PM CST
Astronomical Twilight 5:31 AM CST 6:55 PM CST
Moon 4:30 PM CST (1/25) 5:32 AM CST (1/25)
Length of Visible Light 11h 30m
Length of Day
10h 39m
Waxing Gibbous, 98% of the Moon is Illuminated
Jan 25
Waxing Gibbous
Jan 26
Full
Feb 3
Last Quarter
Feb 10
New
Feb 17
First Quarter

Hourly Weather History & Observations

Time (CST) Temp. Windchill Dew Point Humidity Pressure Visibility Wind Dir Wind Speed Gust Speed Precip Events Conditions
12:15 AM 51.8 °F - 51.8 °F 100% 30.27 in 1.0 mi SE 3.5 mph - N/A   Mist
12:35 AM 50.0 °F - 50.0 °F 100% 30.27 in 0.2 mi SSE 3.5 mph - N/A Fog Fog
12:55 AM 48.2 °F - 48.2 °F 100% 30.26 in 0.2 mi SSE 3.5 mph - N/A   Unknown
1:15 AM 46.4 °F 43.5 °F 46.4 °F 100% 30.26 in 0.2 mi SSE 5.8 mph - N/A Fog Fog
1:35 AM 46.4 °F 44.3 °F 46.4 °F 100% 30.25 in 5.0 mi SE 4.6 mph - N/A   Mist
1:55 AM 50.0 °F - 50.0 °F 100% 30.25 in 5.0 mi SE 3.5 mph - N/A   Mist
2:15 AM 50.0 °F - 50.0 °F 100% 30.25 in 4.0 mi SE 4.6 mph - N/A   Mist
2:35 AM 48.2 °F - 48.2 °F 100% 30.25 in 0.5 mi SE 4.6 mph - N/A Fog Fog
2:55 AM 46.4 °F 44.3 °F 46.4 °F 100% 30.24 in 0.2 mi SE 4.6 mph - N/A Fog Fog
3:15 AM 46.4 °F 44.3 °F 46.4 °F 100% 30.23 in 0.2 mi SE 4.6 mph - N/A Fog Fog
3:35 AM 46.4 °F 45.2 °F 46.4 °F 100% 30.23 in 0.2 mi SE 3.5 mph - N/A Fog Fog
3:55 AM 44.6 °F 42.2 °F 44.6 °F 100% 30.22 in 0.2 mi SE 4.6 mph - N/A Fog Fog
4:15 AM 46.4 °F 44.3 °F 46.4 °F 100% 30.22 in 1.5 mi SE 4.6 mph - N/A   Mist
4:35 AM 46.4 °F 44.3 °F 46.4 °F 100% 30.22 in 1.8 mi SE 4.6 mph - N/A   Mist
4:55 AM 48.2 °F - 48.2 °F 100% 30.23 in 4.0 mi Calm Calm - N/A   Mist
5:15 AM 44.6 °F - 44.6 °F 100% 30.23 in 1.8 mi Calm Calm - N/A   Mist
5:35 AM 42.8 °F - 42.8 °F 100% 30.24 in 0.5 mi Calm Calm - N/A Fog Fog
6:15 AM 42.8 °F - 42.8 °F 100% 30.25 in 0.2 mi Calm Calm - N/A Fog Fog
6:35 AM 41.0 °F - 41.0 °F 100% 30.25 in 0.2 mi Calm Calm - N/A Fog Fog
6:55 AM 41.0 °F - 41.0 °F 100% 30.25 in 0.2 mi Calm Calm - N/A Fog Fog
7:35 AM 42.8 °F 39.3 °F 42.8 °F 100% 30.25 in 1.2 mi ESE 5.8 mph - N/A   Mist
7:55 AM 46.4 °F - 46.4 °F 100% 30.25 in 3.0 mi Calm Calm - N/A   Mist
8:15 AM 50.0 °F - 50.0 °F 100% 30.25 in 7.0 mi Calm Calm - N/A   Unknown
8:35 AM 48.2 °F - 48.2 °F 100% 30.26 in 10.0 mi SE 4.6 mph - N/A   Unknown
8:55 AM 50.0 °F - 50.0 °F 100% 30.26 in 10.0 mi SE 5.8 mph - N/A   Unknown
9:15 AM 62.6 °F - 57.2 °F 82% 30.27 in 10.0 mi SSE 8.1 mph - N/A   Unknown
9:35 AM 69.8 °F - 60.8 °F 73% 30.28 in 10.0 mi SSE 10.4 mph - N/A   Unknown
9:55 AM 69.8 °F - 59.0 °F 68% 30.27 in 10.0 mi SSE 11.5 mph - N/A   Unknown
10:15 AM 71.6 °F - 59.0 °F 64% 30.28 in 10.0 mi SSE 13.8 mph 17.3 mph N/A   Unknown
10:35 AM 71.6 °F - 59.0 °F 64% 30.28 in 10.0 mi South 9.2 mph - N/A   Unknown
10:55 AM 71.6 °F - 57.2 °F 60% 30.27 in 10.0 mi South 15.0 mph - N/A   Unknown
11:15 AM 71.6 °F - 59.0 °F 64% 30.26 in 10.0 mi South 12.7 mph 18.4 mph N/A   Unknown
11:35 AM 73.4 °F - 59.0 °F 61% 30.25 in 10.0 mi SSE 10.4 mph - N/A   Unknown
11:55 AM 73.4 °F - 59.0 °F 61% 30.25 in 10.0 mi South 13.8 mph 21.9 mph N/A   Unknown
12:15 PM 73.4 °F - 59.0 °F 61% 30.24 in 10.0 mi South 13.8 mph 19.6 mph N/A   Unknown
12:35 PM 73.4 °F - 59.0 °F 61% 30.23 in 10.0 mi South 10.4 mph - N/A   Unknown
12:55 PM 73.4 °F - 59.0 °F 61% 30.22 in 10.0 mi South 11.5 mph - N/A   Unknown
1:15 PM 73.4 °F - 59.0 °F 61% 30.20 in 10.0 mi South 16.1 mph 19.6 mph N/A   Unknown
1:35 PM 73.4 °F - 59.0 °F 61% 30.19 in 10.0 mi South 12.7 mph 18.4 mph N/A   Unknown
1:55 PM 71.6 °F - 59.0 °F 64% 30.19 in 10.0 mi South 16.1 mph 21.9 mph N/A   Unknown
2:15 PM 73.4 °F - 59.0 °F 61% 30.18 in 10.0 mi South 12.7 mph 18.4 mph N/A   Unknown
2:35 PM 71.6 °F - 59.0 °F 64% 30.18 in 10.0 mi South 12.7 mph - N/A   Unknown
2:55 PM 71.6 °F - 59.0 °F 64% 30.18 in 10.0 mi South 11.5 mph - N/A   Unknown
3:15 PM 71.6 °F - 59.0 °F 64% 30.18 in 10.0 mi SSW 12.7 mph - N/A   Unknown
3:35 PM 71.6 °F - 59.0 °F 64% 30.18 in 10.0 mi South 9.2 mph - N/A   Unknown
3:55 PM 71.6 °F - 60.8 °F 69% 30.19 in 10.0 mi SSW 11.5 mph - N/A   Unknown
4:15 PM 71.6 °F - 59.0 °F 64% 30.19 in 10.0 mi SSW 9.2 mph - N/A   Unknown
4:35 PM 69.8 °F - 59.0 °F 68% 30.19 in 10.0 mi SSW 9.2 mph - N/A   Unknown
4:55 PM 69.8 °F - 59.0 °F 68% 30.18 in 10.0 mi SSW 6.9 mph - N/A   Unknown
5:15 PM 68.0 °F - 59.0 °F 73% 30.18 in 10.0 mi South 5.8 mph - N/A   Unknown
5:35 PM 64.4 °F - 59.0 °F 83% 30.19 in 10.0 mi South 4.6 mph - N/A   Unknown
5:55 PM 64.4 °F - 59.0 °F 83% 30.19 in 10.0 mi South 4.6 mph - N/A   Unknown
6:15 PM 64.4 °F - 59.0 °F 83% 30.19 in 10.0 mi SSE 4.6 mph - N/A   Unknown
6:35 PM 62.6 °F - 59.0 °F 88% 30.19 in 10.0 mi South 3.5 mph - N/A   Unknown
6:55 PM 60.8 °F - 59.0 °F 94% 30.18 in 10.0 mi Calm Calm - N/A   Unknown
7:15 PM 60.8 °F - 59.0 °F 94% 30.18 in 10.0 mi SSE 3.5 mph - N/A   Unknown
7:35 PM 59.0 °F - 59.0 °F 100% 30.18 in 7.0 mi Calm Calm - N/A   Unknown
7:55 PM 59.0 °F - 59.0 °F 100% 30.18 in 7.0 mi SSE 3.5 mph - N/A   Unknown
8:15 PM 59.0 °F - 57.2 °F 94% 30.18 in 7.0 mi Calm Calm - N/A   Unknown
8:35 PM 57.2 °F - 55.4 °F 94% 30.18 in 5.0 mi Calm Calm - N/A   Mist
8:55 PM 55.4 °F - 55.4 °F 100% 30.19 in 7.0 mi Calm Calm - N/A   Unknown
9:15 PM 55.4 °F - 55.4 °F 100% 30.19 in 10.0 mi SSE 3.5 mph - N/A   Unknown
9:35 PM 55.4 °F - 55.4 °F 100% 30.19 in 7.0 mi Calm Calm - N/A   Unknown
9:55 PM 55.4 °F - 55.4 °F 100% 30.20 in 10.0 mi SSE 3.5 mph - N/A   Unknown
10:15 PM 55.4 °F - 55.4 °F 100% 30.21 in 2.0 mi Calm Calm - N/A   Mist
10:35 PM 53.6 °F - 53.6 °F 100% 30.20 in 7.0 mi SE 3.5 mph - N/A   Unknown
10:55 PM 53.6 °F - 51.8 °F 94% 30.21 in 7.0 mi Calm Calm - N/A   Unknown
11:15 PM 53.6 °F - 51.8 °F 94% 30.20 in 10.0 mi Calm Calm - N/A   Unknown
11:35 PM 53.6 °F - 51.8 °F 94% 30.20 in 7.0 mi Calm Calm - N/A   Unknown
11:55 PM 53.6 °F - 51.8 °F 94% 30.21 in 1.2 mi Calm Calm - N/A   Mist